If you wish to contribute or participate in the discussions about articles you are invited to join SKYbrary as a registered user

 Actions

Ningbo Lishe International

From SKYbrary Wiki

ZSNB
Airport
ICAO: ZSNB
Summary
Name Ningbo Lishe International
Region Asia and Pacific
Territory China CN.gif
Location Ningbo, Yangtze River
Serving
Coordinates 29° 49' 36.00" N, 121° 27' 43.00" E
Runways
Designator Length Width Surface ROPS
13/31 3200 m10,498.688 ft
45 m147.638 ft
CON yes/yes


METAR
Observation ZSNB 202200Z VRB01MPS 6000 BKN016 26/25 Q1004 NOSIG
Station NINGBO/LISHE
Date/Time 20 July 2019 22:00:00
Wind direction °
Wind speed kts
Lowest cloud amount broken clouds
Temperature 26°C
Dew point 25°C
Humidity 94%
QNH 1004 hPa
Weather condition n/a

Ningbo Lishe International Airport (IATA: NGB) is the principal airport serving Ningbo, a major city in the Yangtze River Delta region.